This demonstration page uses our WeatherBlox Daily Observations layout. Learn more.

Left ArrowRight Arrow

Hourly Observations for December 7, 2017

Temp ( °F °C ) Dew Point ( °F °C ) Humidity (%) Winds ( mph kmh ) Pressure ( in mb ) Visibility ( mi km ) Precip ( " mm )
12:53 am 00:53 Mostly Cloudy 42 5.6 27 -2.8 55 55 WNW 7 11 30.18 1022 10 16 0.00 0.00
1:53 am 01:53 Mostly Cloudy 42 5.6 28 -2.2 58 58 NW 6 9 30.17 1022 10 16 0.00 0.00
2:53 am 02:53 Cloudy 42 5.6 28 -2.2 58 58 W 5 7 30.18 1022 10 16 0.00 0.00
3:53 am 03:53 Mostly Cloudy 42 5.6 29 -1.7 60 60 W 5 7 30.17 1022 10 16 0.00 0.00
4:53 am 04:53 Mostly Clear 41 5 30 -1.1 65 65 WNW 5 7 30.16 1021 10 16 0.00 0.00
5:53 am 05:53 Mostly Cloudy 41 5 31 -0.6 67 67 Calm 30.16 1021 10 16 0.00 0.00
6:53 am 06:53 Mostly Cloudy 42 5.6 31 -0.6 65 65 Calm 30.16 1022 10 16 0.00 0.00
7:53 am 07:53 Cloudy 41 5 31 -0.6 67 67 NW 3 6 30.17 1022 10 16 0.00 0.00
8:53 am 08:53 Partly Cloudy 42 5.6 30 -1.1 62 62 NNW 7 11 30.18 1022 10 16 0.00 0.00
9:53 am 09:53 Mostly Cloudy 43 6.1 30 -1.1 60 60 NW 3 6 30.20 1023 10 16 0.00 0.00
10:53 am 10:53 Mostly Cloudy 44 6.7 30 -1.1 58 58 Calm 30.20 1023 10 16 0.00 0.00
11:53 am 11:53 Cloudy 47 8.3 31 -0.6 54 54 NW 5 7 30.18 1022 10 16 0.00 0.00
12:53 pm 12:53 Cloudy 47 8.3 29 -1.7 50 50 NNW 8 13 30.14 1021 10 16 0.00 0.00
1:53 pm 13:53 Mostly Cloudy 48 8.9 29 -1.7 48 48 NW 8 13 30.12 1020 10 16 0.00 0.00
2:53 pm 14:53 Mostly Cloudy 49 9.4 26 -3.3 41 41 NNW 6 9 30.11 1020 10 16 0.00 0.00
3:53 pm 15:53 Cloudy 48 8.9 28 -2.2 46 46 NW 6 9 30.11 1020 10 16 0.00 0.00
4:53 pm 16:53 Cloudy 47 8.3 29 -1.7 50 50 NW 3 6 30.11 1020 10 16 0.00 0.00
5:53 pm 17:53 Cloudy 48 8.9 28 -2.2 46 46 Calm 30.11 1020 10 16 0.00 0.00
6:53 pm 18:53 Cloudy 47 8.3 29 -1.7 50 50 WNW 3 6 30.11 1020 10 16 0.00 0.00
7:53 pm 19:53 Partly Cloudy 45 7.2 34 1.1 66 66 W 3 6 30.12 1020 10 16 0.00 0.00
8:53 pm 20:53 Cloudy 45 7.2 32 0 61 61 Calm 30.11 1020 10 16 0.00 0.00
9:53 pm 21:53 Cloudy 45 7.2 32 0 61 61 WSW 3 6 30.11 1020 10 16 0.00 0.00
10:53 pm 22:53 Cloudy 44 6.7 35 1.7 71 71 NNW 5 7 30.09 1019 10 16 0.00 0.00
11:53 pm 23:53 Cloudy 44 6.7 31 -0.6 60 60 Calm 30.09 1019 10 16 0.00 0.00

Powered by AerisWeather